North Myrtle Beach, SC

1:29 AM EST on December 16, 2019 (GMT -0500)
Grand Strand

Weather History for KCRE - October, 2019

Change the Weather History Date:

Sunday, October 6, 2019

  Actual Average Record
Temperature  
Mean Temperature 75 °F 69 °F  
Max Temperature 83 °F 78 °F 92 °F (1954)
Min Temperature 66 °F 60 °F 44 °F (1948)
Degree Days  
Heating Degree Days 0 1  
Month to date heating degree days 0 6  
Since 1 July heating degree days 0 10  
Cooling Degree Days 10 5  
Month to date cooling degree days 77 33  
Year to date cooling degree days 2260 1817  
Growing Degree Days 24 (Base 50)    
Moisture  
Dew Point 63 °F    
Average Humidity 69    
Maximum Humidity 87    
Minimum Humidity 51    
Precipitation  
Precipitation 0.01 in 0.14 in 3.39 in (2005)
Month to date precipitation 0.01 0.88  
Year to date precipitation 42.58 42.51  
Sea Level Pressure  
Sea Level Pressure 30.20 in    
Wind  
Wind Speed 9 mph (NE)    
Max Wind Speed 17 mph    
Max Gust Speed 24 mph    
Visibility 10 miles    
Events Rain    
T = Trace of Precipitation, MM = Missing Value Source: NWS Daily Summary

Daily Weather History Graph

Daily Weather History Graph

Search for Another Location

Airport or City:

Astronomy

Oct. 06, 2019 Rise Set
Actual Time 7:12 AM EDT 6:52 PM EDT
Civil Twilight 6:47 AM EDT 7:17 PM EDT
Nautical Twilight 6:18 AM EDT 7:46 PM EDT
Astronomical Twilight 5:49 AM EDT 8:15 PM EDT
Moon 3:09 PM EDT (10/6) 12:30 AM EDT (10/6)
Length of Visible Light 12h 29m
Length of Day
11h 40m
First Quarter, 59% of the Moon is Illuminated
Oct 6
First Quarter
Oct 13
Full
Oct 21
Last Quarter
Oct 27
New
Nov 4
First Quarter

Hourly Weather History & Observations

Time (EDT) Temp. Heat Index Dew Point Humidity Pressure Visibility Wind Dir Wind Speed Gust Speed Precip Events Conditions
12:53 AM 66.9 °F - 60.1 °F 79% 30.20 in 10.0 mi NNE 10.4 mph - N/A   Mostly Cloudy
1:53 AM 66.9 °F - 61.0 °F 81% 30.19 in 10.0 mi NNE 11.5 mph - N/A   Overcast
2:53 AM 66.9 °F - 61.0 °F 81% 30.19 in 10.0 mi NNE 9.2 mph - N/A   Clear
3:53 AM 66.0 °F - 61.0 °F 84% 30.17 in 10.0 mi NNE 6.9 mph - N/A   Clear
4:53 AM 66.0 °F - 62.1 °F 87% 30.17 in 10.0 mi NNE 8.1 mph - N/A   Clear
5:53 AM 66.0 °F - 62.1 °F 87% 30.18 in 10.0 mi NE 8.1 mph - N/A   Scattered Clouds
6:53 AM 66.0 °F - 62.1 °F 87% 30.19 in 10.0 mi NNE 6.9 mph - N/A   Overcast
7:53 AM 66.9 °F - 63.0 °F 87% 30.20 in 10.0 mi NE 6.9 mph - N/A   Mostly Cloudy
8:53 AM 70.0 °F - 64.0 °F 81% 30.22 in 10.0 mi NNE 6.9 mph - N/A   Partly Cloudy
9:53 AM 75.0 °F - 64.9 °F 71% 30.23 in 10.0 mi NNE 6.9 mph - N/A   Clear
10:53 AM 81.0 °F 83.0 °F 66.0 °F 60% 30.23 in 10.0 mi ENE 9.2 mph - N/A   Partly Cloudy
11:53 AM 82.9 °F 84.6 °F 64.9 °F 54% 30.23 in 10.0 mi East 13.8 mph 18.4 mph N/A   Mostly Cloudy
12:53 PM 77.0 °F - 66.9 °F 71% 30.24 in 10.0 mi ENE 10.4 mph - 0.01 in Rain Light Rain
1:53 PM 79.0 °F - 64.9 °F 62% 30.22 in 10.0 mi East 6.9 mph - 0.00 in   Overcast
2:53 PM 82.0 °F 84.5 °F 66.9 °F 60% 30.20 in 10.0 mi East 12.7 mph 21.9 mph N/A   Overcast
3:53 PM 82.0 °F 83.4 °F 64.0 °F 54% 30.19 in 10.0 mi East 15.0 mph 21.9 mph N/A   Mostly Cloudy
4:53 PM 81.0 °F 82.2 °F 63.0 °F 54% 30.19 in 10.0 mi East 12.7 mph 20.7 mph N/A   Mostly Cloudy
5:53 PM 80.1 °F 81.1 °F 61.0 °F 52% 30.19 in 10.0 mi East 12.7 mph - N/A   Clear
6:53 PM 78.1 °F - 62.1 °F 58% 30.19 in 10.0 mi East 9.2 mph - N/A   Partly Cloudy
7:53 PM 77.0 °F - 61.0 °F 58% 30.19 in 10.0 mi East 8.1 mph 18.4 mph N/A   Partly Cloudy
8:53 PM 73.0 °F - 63.0 °F 71% 30.20 in 10.0 mi ENE 9.2 mph - N/A   Scattered Clouds
9:53 PM 73.0 °F - 63.0 °F 71% 30.20 in 10.0 mi NE 8.1 mph - N/A   Mostly Cloudy
10:53 PM 71.1 °F - 63.0 °F 75% 30.20 in 10.0 mi NE 5.8 mph - N/A   Scattered Clouds
11:53 PM 70.0 °F - 63.0 °F 78% 30.17 in 10.0 mi NE 6.9 mph - N/A   Partly Cloudy